RH
30 32 32 32 31 31 30 30 32 32 32 32 32 31 29 28 27 26 24 24 24 24 23 22 21 21 21 24 27 26 26 30 31 33 39 37 33 34 34 33 29 25 26 26 24 24 26 27 26 24 23 22 22 22 23 23 24 24 25 25 24 23 22 22 21 21 22 23 23 22 23 25 25 23 21 21 23 25 25 26 26 26 25 24 21 20 19 20 22 23 22 20 19 18 13 10 13
27 29 30 31 32 33 33 30 30 30 30 29 29 30 28 29 30 28 26 24 24 24 24 23 23 23 22 24 26 26 30 33 31 32 36 34 32 32 32 34 31 28 28 26 26 24 25 27 26 24 22 22 22 22 23 23 24 25 25 26 25 24 23 23 23 22 22 22 22 23 24 26 26 25 23 22 23 25 26 26 26 26 26 24 23 22 22 23 23 21 19 18 18 16 11 11 14
25 26 27 28 30 32 33 32 31 30 28 27 25 27 28 29 30 30 29 27 24 24 25 25 24 25 25 25 24 26 32 34 31 32 34 32 31 31 33 35 33 30 28 28 29 28 27 27 25 23 22 23 23 22 23 23 24 25 26 26 25 24 24 24 25 24 22 21 22 22 24 26 27 26 25 23 23 24 25 26 26 26 26 25 25 25 24 23 21 18 16 17 17 15 11 13 15
24 25 25 27 29 30 31 31 32 30 28 26 25 25 27 27 28 29 30 29 27 25 26 26 24 26 26 25 27 29 34 33 30 30 32 32 30 31 35 37 36 31 28 32 33 31 29 27 25 23 23 23 23 23 23 23 23 24 25 26 26 25 25 25 26 26 23 22 21 22 23 25 27 27 26 24 22 22 24 25 26 26 25 24 24 25 25 21 16 15 15 15 15 14 13 15 15
25 24 25 27 28 28 29 30 30 28 24 24 25 25 26 26 26 27 27 29 29 28 27 26 26 26 25 27 29 31 32 32 30 26 28 32 29 31 35 37 38 35 33 36 34 31 28 26 25 24 24 23 23 23 23 23 23 24 25 26 26 24 25 26 27 27 25 23 21 22 24 25 26 27 27 25 22 21 22 24 25 25 24 22 22 25 25 18 14 15 14 14 14 13 14 14 14
25 25 27 29 28 28 29 28 26 24 21 22 24 25 26 25 25 25 26 28 29 30 29 28 27 26 25 27 27 27 27 27 26 23 24 29 29 28 33 38 41 40 38 38 34 30 28 26 26 25 25 24 23 23 23 23 24 25 25 26 26 24 24 26 27 27 26 24 22 22 24 26 26 27 27 25 22 21 21 23 24 24 23 21 22 25 24 18 14 14 14 14 14 14 13 14 14
26 25 28 30 28 28 30 27 23 22 21 21 22 23 25 25 24 24 26 28 28 29 30 29 26 24 25 27 28 26 25 23 22 23 22 25 27 27 31 37 41 43 41 39 35 31 30 27 27 26 25 24 24 23 24 24 24 25 26 26 26 24 24 25 27 28 27 26 24 22 23 26 27 27 27 25 23 21 20 21 22 22 21 21 23 25 24 18 15 14 14 15 15 15 15 14 14
27 27 28 30 29 28 29 26 23 22 21 21 22 23 24 24 23 23 23 26 27 28 29 28 23 24 27 27 30 30 27 24 23 24 22 23 26 27 31 35 38 41 42 41 38 33 30 29 28 27 26 25 24 24 24 24 24 25 27 27 26 24 24 25 26 27 27 27 26 23 23 26 28 28 27 26 24 21 20 19 20 20 20 20 23 25 23 19 16 15 15 16 15 16 15 16 15
28 28 29 30 30 29 26 23 21 21 21 21 22 23 23 23 22 22 21 22 24 26 27 27 23 25 31 30 31 31 29 25 26 27 24 23 25 27 30 32 34 37 41 42 39 34 31 30 28 27 26 26 25 25 24 24 24 25 27 26 26 24 24 25 26 27 27 27 27 25 23 25 27 29 28 26 24 23 21 18 17 17 18 19 22 24 22 18 17 16 15 16 16 16 16 16 15
28 30 31 30 29 28 23 19 19 20 20 20 21 21 22 22 22 22 21 20 22 24 24 25 23 27 33 34 33 31 29 25 26 30 27 23 23 25 27 29 31 34 38 40 37 33 31 31 30 28 27 26 26 25 24 24 24 25 26 26 26 24 24 25 25 26 27 28 28 26 23 23 27 29 29 27 25 24 21 18 16 16 16 18 21 24 22 18 16 16 16 16 16 16 15 16 16
26 29 30 31 29 25 19 16 17 18 19 20 20 20 20 21 21 21 21 20 21 22 23 23 24 29 33 34 34 32 30 27 27 30 30 28 27 26 26 28 30 32 33 34 32 30 31 32 31 29 27 27 26 25 24 23 23 24 25 26 25 24 24 25 25 26 27 28 28 26 23 22 25 28 29 28 26 25 22 19 16 15 15 17 20 23 22 18 16 16 16 16 15 15 15 16 16
21 25 28 31 26 19 15 15 16 16 17 18 19 19 20 20 20 20 20 20 20 21 22 21 23 28 34 35 35 35 33 31 30 31 32 32 32 33 30 29 31 33 33 31 31 29 29 32 32 30 28 28 26 25 24 23 23 23 24 26 25 25 25 25 25 25 26 27 27 26 24 22 23 26 28 28 27 25 23 21 17 15 15 16 19 22 22 19 16 16 16 16 16 16 16 16 16
17 20 24 27 21 17 16 15 15 16 16 15 17 18 20 20 20 20 19 19 20 21 20 21 23 27 34 37 36 37 38 36 34 34 34 33 34 36 35 33 33 34 34 34 33 29 26 28 31 31 29 28 27 26 24 23 23 23 24 25 25 25 25 26 25 25 26 27 27 25 24 23 22 24 26 28 27 26 24 22 20 16 15 16 18 20 21 19 17 16 16 16 17 18 18 18 18
14 15 19 21 18 18 17 15 14 15 15 14 15 17 19 20 20 20 20 20 19 20 20 21 23 28 37 38 37 38 39 38 37 37 37 38 36 36 36 34 33 32 32 33 32 29 25 25 28 31 29 28 27 26 25 24 23 23 24 25 25 26 26 26 26 26 26 27 27 26 24 23 23 24 26 28 28 27 25 23 21 19 17 17 19 20 20 20 18 17 17 17 18 20 21 22 21
14 14 16 17 17 17 16 15 14 14 14 13 13 15 18 18 20 21 21 20 19 19 19 21 23 29 38 38 37 38 39 40 39 39 41 40 38 37 36 34 33 30 28 27 26 25 23 23 25 30 30 29 28 26 25 24 24 24 24 26 26 26 27 27 27 27 27 27 28 27 25 24 24 24 26 28 28 28 27 24 22 20 19 20 21 21 21 21 20 19 19 19 20 21 22 22 22
16 15 15 16 15 15 14 14 15 14 14 13 13 14 16 17 20 20 20 21 20 20 19 20 22 25 31 32 31 35 39 43 43 43 43 40 39 39 37 35 33 29 26 23 22 20 19 21 23 28 31 30 28 27 26 25 24 24 25 26 27 27 27 27 27 28 27 27 28 28 26 26 25 25 26 27 28 28 28 26 24 22 21 21 22 22 21 22 22 20 20 20 21 21 22 21 22
17 17 17 16 14 12 11 12 14 14 14 13 13 14 15 17 19 19 20 21 20 20 19 20 21 20 23 25 27 32 36 40 44 46 45 41 40 40 37 35 32 29 27 24 19 16 15 17 19 24 30 31 29 28 27 26 26 26 26 27 27 28 28 28 28 28 28 28 28 28 27 27 25 25 25 27 27 27 28 28 26 24 22 22 23 22 22 21 21 20 20 20 21 22 22 21 22
18 17 17 16 13 11 8 9 10 11 12 12 13 14 15 17 18 18 20 21 19 19 20 20 21 19 19 23 28 31 33 38 42 44 44 41 38 38 36 32 30 29 28 26 22 18 15 14 15 19 26 30 30 29 28 27 27 27 27 28 28 29 30 30 29 29 28 28 28 28 28 28 27 25 24 25 26 26 27 28 27 26 24 24 24 23 22 21 21 20 20 21 22 22 22 24 25
20 16 16 15 12 10 8 8 8 9 10 10 12 12 14 15 16 18 19 19 18 20 25 23 22 22 22 26 30 30 32 36 39 41 42 39 35 33 32 31 30 28 26 27 25 23 20 16 14 18 25 29 30 30 29 28 28 28 28 29 29 30 32 31 29 29 28 28 28 29 29 28 28 26 24 24 25 26 26 27 28 27 25 24 24 24 23 22 21 20 20 21 22 23 25 28 29
22 18 16 13 10 10 9 8 8 9 9 9 10 10 11 11 13 16 16 16 15 20 29 28 28 28 26 29 31 30 31 33 36 38 38 35 31 28 27 27 26 25 24 26 26 25 25 20 18 22 26 28 30 30 29 30 30 30 30 29 30 31 32 32 30 29 29 28 28 29 29 28 28 26 24 23 24 26 26 26 27 28 27 25 24 23 22 21 20 20 20 20 20 23 28 29 30
24 20 17 11 10 10 9 10 10 9 9 9 9 8 9 8 10 11 11 13 13 17 24 22 25 28 28 32 32 31 32 34 36 36 35 32 30 27 24 21 19 20 23 25 25 25 27 25 24 27 29 28 30 31 30 32 33 32 32 30 30 32 32 32 31 29 29 29 29 30 29 28 29 27 24 22 22 25 26 26 27 27 27 25 23 22 22 21 20 19 19 19 21 25 28 30 31
26 22 17 13 11 11 10 11 11 10 9 9 9 8 8 8 9 9 10 12 10 14 18 15 17 24 28 33 33 32 33 35 36 35 32 29 27 26 23 20 19 20 22 24 24 25 27 27 28 32 31 29 30 32 31 34 35 33 34 32 31 32 33 32 31 30 29 30 30 30 29 29 29 28 25 21 21 23 25 26 26 27 27 26 24 22 21 20 19 19 20 21 24 27 29 31 33
28 22 18 15 13 13 12 12 12 11 10 10 8 8 8 8 8 8 9 10 9 11 15 14 15 21 25 30 33 34 36 37 35 33 30 27 25 22 21 19 17 18 21 24 24 26 27 25 29 34 34 32 32 34 33 35 37 34 34 33 32 33 33 33 31 30 30 30 30 29 29 29 29 29 26 21 20 22 24 26 26 27 26 25 24 22 21 20 19 20 23 25 27 28 30 32 36
30 23 19 18 15 15 15 14 13 12 11 10 8 8 8 9 8 8 8 9 8 9 12 14 15 18 23 27 29 29 32 33 33 33 29 24 20 18 17 15 14 17 22 24 24 26 27 24 27 33 36 35 36 37 36 36 37 34 34 35 34 33 34 33 32 31 30 31 30 29 29 29 29 29 27 23 21 21 23 26 26 26 25 25 23 22 19 19 20 22 27 30 29 31 32 33 36
31 25 20 21 20 19 17 17 15 13 12 10 10 9 8 8 8 8 8 7 8 9 11 14 17 22 24 25 26 27 27 29 32 32 28 23 20 18 17 15 15 19 22 24 24 26 28 25 24 30 37 39 40 39 38 37 35 34 33 35 34 34 35 35 33 32 31 31 30 29 30 31 30 29 29 26 23 22 23 25 26 25 25 24 22 20 18 19 24 26 30 31 30 32 34 34 36
31 28 25 25 24 22 19 18 16 14 13 12 12 10 8 8 8 8 7 7 9 10 14 18 22 26 27 27 26 24 25 27 30 28 25 23 21 19 18 18 20 21 22 23 24 25 27 25 21 26 34 40 42 41 40 39 36 35 34 33 32 33 35 36 35 33 32 32 31 31 32 33 32 30 31 29 27 26 24 25 26 25 24 23 21 20 20 23 27 29 30 30 30 34 36 35 37
32 34 32 29 26 23 21 19 15 14 14 13 13 12 9 8 9 9 7 8 10 13 19 24 26 27 29 29 26 23 23 25 25 23 23 22 20 19 20 23 24 22 23 24 23 23 25 23 21 24 30 37 43 44 42 41 39 38 35 33 32 33 36 38 37 35 35 35 34 34 34 35 34 32 33 34 32 31 27 26 26 24 23 22 22 23 25 27 29 28 28 30 35 39 39 38 41
39 39 36 31 27 23 22 20 16 15 15 14 12 13 12 10 10 8 7 10 12 16 24 27 27 27 29 29 27 26 24 22 21 21 20 19 19 20 21 21 20 19 20 21 21 22 23 23 22 24 30 36 43 46 44 43 42 40 37 34 33 33 37 40 38 38 38 37 36 36 35 34 34 35 36 37 38 35 29 27 26 23 22 22 26 29 30 31 31 29 29 35 42 42 41 43 46
44 42 39 35 30 25 22 20 17 15 14 14 14 15 13 11 10 7 7 11 14 20 26 27 28 27 27 28 27 25 22 20 20 20 20 18 19 22 20 18 16 16 18 20 20 22 23 24 23 25 32 38 44 48 47 44 43 42 39 36 33 34 38 40 40 41 41 40 39 37 36 34 34 36 38 39 42 39 31 29 27 24 24 25 31 35 33 32 31 30 33 39 42 41 43 46 46
44 42 41 38 35 29 22 19 19 16 14 14 16 17 14 11 9 8 8 11 15 23 26 26 28 26 26 28 26 22 20 19 19 20 21 20 21 24 22 18 16 16 18 21 21 23 24 24 25 25 32 40 45 49 47 44 45 45 41 37 35 36 39 42 44 45 44 45 43 38 37 37 37 38 39 40 42 42 37 32 29 27 29 29 32 36 35 32 29 29 35 40 41 43 46 47 45
45 44 42 39 39 33 23 20 20 18 14 14 17 17 14 11 10 8 8 10 14 22 26 25 25 25 26 27 25 23 21 20 18 19 20 20 21 24 23 18 18 19 19 21 22 23 24 24 25 25 30 40 47 48 45 44 46 46 41 38 38 39 42 45 47 48 48 50 47 42 40 39 40 40 40 42 42 45 45 38 32 33 33 32 32 34 35 34 31 31 36 41 43 47 49 47 46
45 47 45 40 39 34 26 21 20 18 15 14 18 17 14 12 11 10 9 11 13 17 21 22 23 24 25 26 26 26 25 23 22 23 23 23 23 24 23 19 20 21 19 20 21 23 24 24 25 25 28 39 47 47 45 46 46 44 40 39 41 43 46 48 50 51 52 54 50 45 41 40 41 41 42 44 42 46 49 43 38 38 37 34 33 35 37 37 34 32 36 41 44 48 49 48 46
47 48 47 41 37 33 28 23 19 18 17 16 17 17 15 12 11 11 10 11 12 14 16 17 21 24 25 26 27 27 27 27 26 26 25 23 23 22 22 21 20 21 20 20 21 23 24 24 25 25 27 38 45 45 45 45 43 42 41 42 44 46 48 50 50 51 53 55 52 45 41 40 39 39 41 43 40 44 49 47 42 42 42 37 35 37 40 39 35 33 37 41 44 48 48 45 44
49 49 49 45 37 33 30 25 20 19 19 16 16 17 15 13 12 12 11 11 11 13 14 13 17 23 25 26 27 27 28 28 26 24 22 20 19 19 19 20 19 20 21 21 21 23 24 24 25 25 28 37 44 44 44 44 42 42 43 43 45 47 47 48 48 49 51 52 50 45 41 38 32 31 38 39 37 40 45 46 45 45 45 41 37 37 39 42 41 39 40 43 46 49 47 44 43
51 56 57 51 42 35 29 26 22 20 20 17 17 17 16 14 12 12 12 11 11 12 13 12 12 18 24 26 27 27 27 26 23 21 20 18 18 18 19 20 20 21 22 22 22 23 24 24 25 25 29 38 43 43 44 43 42 42 43 43 44 46 46 46 46 46 46 46 47 44 40 37 28 25 32 35 33 35 40 45 47 46 44 41 38 38 40 46 49 46 45 47 49 49 46 45 44
55 62 62 54 45 36 28 26 24 22 21 19 17 17 16 15 13 13 13 12 12 12 12 13 11 13 21 27 27 28 28 25 21 20 20 19 18 18 20 21 21 22 22 22 22 24 25 25 25 25 30 39 42 41 42 42 41 41 42 43 43 45 45 44 42 41 42 43 45 43 39 37 31 26 27 29 29 33 40 46 49 47 43 40 38 41 47 52 56 52 48 51 52 50 49 48 45
58 62 62 55 49 39 30 27 26 24 24 20 17 17 17 16 15 13 14 13 12 13 13 13 12 11 16 25 28 27 25 21 19 21 21 20 19 20 21 23 24 25 24 23 23 24 25 25 26 26 31 36 37 37 38 40 40 41 42 43 43 43 41 40 38 37 39 41 44 45 42 40 37 31 25 23 26 33 42 48 50 47 42 38 37 45 56 61 63 56 48 52 54 53 53 50 46
61 64 64 59 53 44 33 28 27 27 27 24 18 17 18 17 16 15 14 14 13 12 13 13 13 11 12 21 28 27 22 20 21 23 22 21 21 22 24 24 25 27 26 24 24 25 26 26 26 26 29 32 32 34 36 38 39 41 43 42 40 38 36 35 35 36 37 39 44 46 45 44 42 37 27 23 28 35 44 50 49 45 39 36 40 52 63 67 67 58 49 52 56 55 55 52 48
63 66 66 61 54 46 36 30 30 30 29 28 23 19 18 18 17 16 14 14 13 12 12 12 12 11 11 17 27 28 25 25 25 24 23 22 21 23 26 25 25 27 29 27 25 26 27 27 26 26 28 30 31 35 37 38 40 41 41 40 37 34 33 33 34 35 37 40 43 44 45 46 46 43 33 28 34 39 45 49 49 47 42 42 48 58 66 70 70 61 53 53 57 57 55 54 48
65 66 65 60 54 49 41 33 32 32 29 30 28 23 20 19 19 16 14 13 13 12 12 11 12 12 11 13 21 27 27 27 26 25 24 22 23 25 27 26 25 27 31 30 26 26 27 27 26 26 29 32 34 38 38 38 39 38 38 37 34 33 32 34 36 38 39 39 42 45 47 47 47 47 38 31 37 44 47 48 48 49 49 51 58 63 68 71 71 66 60 56 57 57 56 53 45
65 65 63 58 53 50 44 37 35 33 31 30 30 29 24 21 20 16 13 14 13 13 12 12 11 11 10 11 16 22 24 24 25 26 26 24 24 27 28 27 26 28 32 32 28 25 28 28 27 28 31 34 36 40 40 37 35 34 35 35 33 33 33 35 39 41 40 39 43 49 52 51 49 49 43 33 34 43 48 49 49 50 54 59 64 66 68 72 73 70 67 62 60 61 56 49 40
65 64 61 57 53 50 44 40 38 36 33 30 29 32 29 22 20 16 14 14 14 13 13 12 11 11 11 12 17 22 22 21 22 24 25 25 25 27 30 28 26 29 33 34 29 26 29 30 29 30 34 36 38 40 39 34 31 33 34 34 34 35 35 37 40 41 41 41 44 49 52 53 52 50 47 36 31 35 41 46 48 50 57 64 66 67 70 75 75 72 69 66 65 63 53 43 37
64 62 61 58 55 50 45 43 43 40 35 30 27 30 30 25 21 18 15 14 13 13 13 12 11 11 11 13 19 23 23 23 23 23 24 25 26 28 31 29 27 30 34 36 31 27 30 31 31 32 35 39 39 37 35 31 30 32 33 34 35 36 36 39 41 41 41 39 40 43 45 48 49 52 54 48 36 31 34 40 42 46 57 65 67 69 73 77 76 72 70 68 67 62 48 38 35
61 59 62 61 56 49 46 46 46 43 38 33 27 26 29 28 23 18 15 14 13 12 12 12 11 11 11 13 19 22 22 24 26 26 26 26 26 28 30 29 28 30 34 36 32 30 30 32 33 33 37 40 38 34 32 30 30 31 33 35 36 36 36 38 41 41 40 37 38 40 41 43 46 51 59 61 51 40 37 40 42 48 59 67 69 72 75 78 77 73 71 69 68 61 46 37 35
57 58 61 59 57 51 46 48 48 44 43 39 30 27 29 28 24 19 16 14 13 12 12 11 11 11 11 14 20 22 20 23 25 26 27 27 28 28 28 27 28 30 34 37 34 32 32 32 34 36 38 39 36 33 31 31 31 31 32 35 37 37 37 38 40 40 38 37 40 41 40 43 47 50 57 62 57 47 47 51 52 55 62 70 73 75 77 78 78 75 73 71 69 59 46 40 37
54 59 61 59 58 53 48 49 48 46 47 43 34 29 29 28 25 21 18 15 13 12 11 10 10 11 11 14 21 22 21 24 26 25 25 28 29 29 27 27 28 30 35 38 36 35 35 34 35 37 38 37 34 32 31 31 31 31 32 34 36 37 38 38 39 39 39 40 42 42 41 43 47 49 52 56 54 48 51 60 63 64 66 69 73 77 77 78 79 77 75 74 70 60 49 43 40
54 60 63 61 59 55 52 51 49 51 50 41 33 30 29 28 24 20 18 15 12 11 11 10 9 10 11 15 22 24 24 26 27 26 26 27 27 26 27 29 29 30 35 38 37 37 37 37 37 37 37 35 33 31 31 31 31 32 33 34 34 35 37 38 38 38 39 41 43 43 44 46 49 50 51 54 54 51 56 64 68 71 72 71 74 78 77 77 79 79 76 73 68 60 51 43 41
55 60 63 64 61 57 55 51 50 54 49 36 32 32 30 27 23 19 17 14 12 12 11 10 10 10 11 16 23 25 25 27 28 28 28 28 27 27 29 31 30 31 34 37 38 39 39 39 39 38 36 34 32 31 32 31 31 32 33 33 33 33 36 37 37 37 37 38 41 44 47 50 51 53 54 55 55 55 61 68 69 72 75 74 76 78 76 77 80 79 74 68 65 60 51 43 42
54 59 61 65 64 61 61 58 54 53 45 35 32 32 30 25 21 20 17 14 13 12 11 10 9 10 11 16 23 25 25 28 28 28 28 28 28 28 29 31 32 31 32 35 39 40 40 41 41 37 34 32 32 31 32 31 30 31 32 31 31 33 36 37 36 35 34 35 41 46 49 52 53 56 57 56 55 54 60 68 70 71 73 73 75 76 77 79 79 79 74 67 66 61 48 42 43
53 57 59 65 69 70 70 63 55 50 45 37 33 34 32 24 21 20 17 15 13 12 12 11 9 10 10 15 22 25 26 28 28 28 28 28 28 28 29 30 31 32 34 36 39 41 42 44 42 36 33 32 32 31 32 32 30 30 31 30 31 33 34 35 35 34 34 38 44 48 50 52 54 58 60 59 56 54 60 68 70 70 71 72 73 72 75 78 80 80 76 70 68 58 46 42 42
52 54 56 63 68 70 69 65 58 53 46 38 35 38 33 24 21 19 16 16 14 12 12 11 11 10 10 15 22 25 26 27 28 28 28 27 26 27 29 29 30 32 35 38 40 42 43 43 41 38 35 33 32 31 31 32 31 30 30 30 30 31 32 33 34 34 36 41 47 50 51 53 56 61 65 64 58 54 57 66 69 70 71 72 72 72 75 79 80 80 75 71 66 55 45 43 40
55 55 59 63 64 64 63 61 60 54 46 40 38 38 33 25 23 20 17 18 15 13 12 11 12 11 12 18 23 25 27 27 28 28 28 27 26 26 29 30 30 32 34 36 39 43 44 43 41 41 39 36 33 32 31 31 31 30 30 30 30 31 32 33 34 35 39 45 50 52 54 56 59 62 65 66 62 56 56 62 66 68 68 69 71 75 79 81 81 78 72 69 64 52 45 43 40
61 61 62 60 58 61 61 61 60 50 46 47 40 34 33 29 24 21 18 18 16 14 13 12 13 12 15 22 24 24 26 26 27 28 28 28 26 28 30 30 31 32 32 34 37 41 42 41 42 42 41 39 35 32 31 31 31 30 30 30 30 31 32 33 34 37 43 49 53 53 55 58 59 60 61 62 63 62 61 62 66 67 65 67 70 76 80 80 79 76 72 69 62 52 47 44 41
65 66 62 58 60 60 60 64 62 51 50 55 44 35 36 34 29 26 20 18 17 14 13 13 13 14 17 22 23 23 25 26 27 27 28 27 27 29 31 31 31 31 30 30 32 36 37 36 38 40 40 39 36 33 32 32 31 30 30 30 31 31 31 32 35 40 46 50 51 52 55 58 59 58 59 60 62 66 67 66 67 67 65 66 69 73 78 80 80 77 73 70 62 53 50 46 42
63 65 61 62 68 64 61 64 64 57 54 55 48 39 38 36 31 27 21 19 18 15 14 14 13 14 17 21 23 23 25 26 27 28 29 29 30 31 32 32 32 32 30 28 29 31 32 32 33 36 36 35 35 34 33 33 31 30 30 30 30 31 32 33 36 41 46 47 49 52 54 56 58 57 57 59 60 64 67 67 68 69 69 71 72 73 76 79 81 78 73 71 64 54 51 48 45
62 65 62 64 68 65 62 61 60 59 56 56 51 43 40 36 30 26 23 22 20 16 15 14 14 14 14 19 23 23 25 27 27 28 29 30 31 31 31 31 32 34 32 29 27 29 31 32 33 33 34 35 36 35 34 33 31 30 30 30 30 31 32 34 37 41 45 46 49 52 53 54 56 56 56 57 57 62 68 71 70 72 76 78 77 75 75 77 80 79 75 73 67 56 52 50 47
66 68 66 66 66 63 61 58 53 52 57 60 55 47 42 35 28 25 23 23 22 18 16 14 14 14 13 17 22 23 24 26 26 27 28 30 31 32 33 33 33 34 32 29 27 28 31 34 33 32 34 36 37 35 33 32 31 31 30 30 30 31 31 33 37 41 45 47 50 52 52 53 53 54 54 55 57 62 70 74 73 75 81 85 84 81 78 79 82 82 78 76 69 58 53 51 49
66 68 67 66 66 63 61 62 56 49 51 55 52 49 43 33 29 28 23 24 25 19 16 14 13 13 13 16 21 23 24 25 26 27 28 29 31 34 35 35 35 35 33 31 29 29 31 32 30 30 32 35 36 34 32 31 31 31 30 31 31 31 31 33 36 41 46 49 51 51 51 51 52 53 54 55 58 62 68 73 76 80 85 89 90 88 84 83 84 83 80 77 71 62 55 53 52